Regional Weather Roundup
Issued by NWS

Home | Current Version | Previous Version | Text Only | Print | Product List | Glossary On
Versions: 1 2 3 4 5 6 7 8 9 10 11 12 13 14 15 16 17 18 19 20 21 22 23 24 25 26 27 28 29 30 31 32 33 34 35 36 37 38 39 40 41 42 43 44 45 46 47 48 49 50
000
ASUS43 KDMX 192006
RWRIA

WEATHER ROUNDUP FOR IOWA
NATIONAL WEATHER SERVICE DES MOINES IA
300 PM CDT THU OCT 19 2017

NOTE: "FAIR" INDICATES FEW OR NO CLOUDS BELOW 12,000 FEET WITH NO
SIGNIFICANT WEATHER AND/OR OBSTRUCTIONS TO VISIBILITY.

* - THESE STATIONS ARE NOT NWS STATIONS...THUS NOT UNDER NWS
QUALITY CONTROL.  THEY ALSO DO NOT REPORT WEATHER SUCH
AS PRECIPITATION OR FOG.

IAZ001>003-012>014-020>022-031>034-043>046-192100-
   NORTHWEST IOWA

CITY           SKY/WX    TMP DP  RH WIND       PRES   REMARKS
CARROLL *        N/A     91  68  46 S13G18    30.02F HX  95
CHEROKEE *       N/A     73  47  38 S13G20    29.99F
DENISON *        N/A     75  52  43 S12G21    30.02F
LE MARS *        N/A     75  50  41 S16G22    29.96F
ORANGE CITY *    N/A     75  50  41 S14       29.97F
SHELDON *        N/A     75  45  33 S12G20    29.96F
SIOUX CITY       N/A     74  50  42 S15G21    29.97F
SPENCER          N/A     74  43  32 S17G23    30.00F
STORM LAKE *     N/A     75  45  33 S15G22    30.01F
$$

IAZ055>058-069>071-079>083-090>094-192100-
   SOUTHWEST IOWA

CITY           SKY/WX    TMP DP  RH WIND       PRES   REMARKS
ATLANTIC *       N/A     77  52  41 S12G20    30.01F
AUDUBON *        N/A     75  54  46 S8        30.03F
CLARINDA *       N/A     79  55  44 S9G15     30.05F
COUNCIL BLFS *   N/A     75  55  50 S14       30.00F
CRESTON *        N/A     75  54  46 SE14      30.06F
HARLAN  *        N/A     77  52  41 S13       30.04F
LAMONI           N/A     74  55  51 S12       30.06F
RED OAK *        N/A     77  55  47 S12       30.02F
SHENANDOAH *     N/A     81  52  36 S13       30.02F HX  80
$$

IAZ047>049-059>061-072>074-084-192100-
   CENTRAL IOWA

CITY           SKY/WX    TMP DP  RH WIND       PRES   REMARKS
AMES             N/A     74  50  42 SE10      30.05F
ANKENY *         N/A     73  50  43 SE10G16   30.06F
BOONE *          N/A     75  46  35 SE14      30.04F
CHARITON *       N/A     75  54  46 SE8G16    30.06F
DES MOINES       N/A     76  51  41 S12       30.05F
KNOXVILLE *      N/A     75  52  43 S10       30.06F
MARSHALLTOWN     N/A     74  42  31 SE17      30.06F
NEWTON *         N/A     75  48  38 S14       30.07F
PELLA *          N/A     76  50  39 S13       30.08F
PERRY *          N/A     76  43  30 SE13      30.04F
$$

IAZ004>006-015-016-023>025-035-036-192100-
   NORTH CENTRAL IOWA

CITY           SKY/WX    TMP DP  RH WIND       PRES   REMARKS
ALGONA *         N/A     73  43  33 S20       30.02F
CLARION *        N/A     73  39  29 S17       30.04F
FORT DODGE *     N/A     73  45  36 S10       30.04F
MASON CITY       N/A     69  34  27 S18       30.07F
FOREST CITY *    N/A     70  36  28 S16       30.04F
WEBSTER CITY *   N/A     75  43  31 S14G22    30.03F
IOWA FALLS *     N/A     73  39  28 SE15G21   30.08F
$$

IAZ007>011-017>019-026>030-037>042-050>054-066-192100-
   NORTHEAST IOWA

CITY           SKY/WX    TMP DP  RH WIND       PRES   REMARKS
CEDAR RAPIDS     N/A     70  36  28 SE12G20   30.10F
CHARLES CITY *   N/A     72  30  21 S13       30.08F
CLINTON *        N/A     72  33  24 SE10      30.14F
DECORAH *        N/A     72  32  23 S10       30.08F
DUBUQUE          N/A     69  33  26 S10       30.13F
MONTICELLO *     N/A     73  28  19 SE13G21   30.11F
OELWEIN *        N/A     72  32  23 S13       30.10F
WATERLOO         N/A     70  32  24 SE13      30.08F
$$

IAZ064-065-067-068-078-192100-
   EAST CENTRAL IOWA

CITY           SKY/WX    TMP DP  RH WIND       PRES   REMARKS
DAVENPORT        N/A     72  34  24 SE8       30.14F
IOWA CITY        N/A     75  43  31 SE8       30.11F
MUSCATINE *      N/A     75  46  35 SE10      30.11F
QUAD CITIES      N/A     74  42  31 SE9       30.11F
$$

IAZ062-063-075>077-085>089-095>099-192100-
   SOUTHEAST IOWA

CITY           SKY/WX    TMP DP  RH WIND       PRES   REMARKS
BURLINGTON       N/A     75  54  47 S7        30.11F
FAIRFIELD *      N/A     73  52  46 SE10      30.09F
FORT MADISON *   N/A     77  54  44 S6        30.11F
KEOKUK *         N/A     75  54  46 SE7       30.10F
OSKALOOSA *      N/A     76  51  41 S9        30.08F
OTTUMWA          N/A     74  55  51 SE12      30.08F
WASHINGTON *     N/A     77  52  41 SE9G16    30.11F
$$

ABBREVIATIONS USED IN REMARKS
   TC - TEMPERATURES IN CELSIUS
  WCI - WIND CHILL INDEX
   HX - HEAT INDEX
  VSB - VISIBILITY
$$




USA.gov is the U.S. government's official web portal to all federal, state and local government web resources and services.